Regional Weather Roundup
Issued by NWS Charleston, SC

Home | Current Version | Previous Version | Text Only | Print | Product List | Glossary On
Versions: 1 2 3 4 5 6 7 8 9 10 11 12 13 14 15 16 17 18 19 20 21 22 23 24 25 26 27 28 29 30 31 32 33 34 35 36 37 38 39 40 41 42 43 44 45 46 47 48 49 50
000
ASUS42 KCHS 011225
RWRCHS

REGIONAL WEATHER ROUNDUP
NATIONAL WEATHER SERVICE CHARLESTON SC
800 AM EDT FRI AUG 01 2014

NOTE: "FAIR" INDICATES FEW OR NO CLOUDS BELOW 12,000 FEET WITH NO
SIGNIFICANT WEATHER AND/OR OBSTRUCTIONS TO VISIBILITY.

NOT ALL STATIONS ARE QUALITY CONTROLLED BY THE NATIONAL
WEATHER SERVICE. USE DATA WITH CAUTION...ESPECIALLY
DEWPOINT OBSERVATIONS.

SCZ027-030-031-034>040-042>050-011300-
...SOUTH CAROLINA...

CITY           SKY/WX    TMP DP  RH WIND       PRES   REMARKS
N CHARLESTON   MOSUNNY   78  74  87 N3        30.00S
6HR MIN TEMP:  74; 6HR MAX TEMP:  78;

WATERFRONT PRK   N/A     81 N/A N/A N6          N/A
FORT JOHNSON   NOT AVBL
MOUNT PLEASANT PTSUNNY   79  77  94 CALM      30.01R FOG
JOHNS ISLAND   SUNNY     79  70  73 CALM      29.99F HAZE
PINOPOLIS        N/A     77  73  88 E6        29.95R
MONCKS CORNER  NOT AVBL
SUMMERVILLE    PTSUNNY   73  73 100 CALM      30.02S
BEAUFORT MCAS  FOG       74  73  97 NE5       30.00S VSB 1/4
6HR MIN TEMP:  74; 6HR MAX TEMP:  75;

BEAUFORT ARPT  CLOUDY    73  73 100 N3        29.99S FOG
HILTON HEAD IS MOSUNNY   77  73  88 N8        30.00R
GEORGETOWN     NOT AVBL
WALTERBORO     FOG       73 N/A N/A CALM      30.01F VSB 1
ORANGEBURG     CLOUDY    73  71  93 CALM      30.03R FOG
6HR MIN TEMP:  72; 6HR MAX TEMP:  73;

BARNWELL       FOG       73  72  94 N7        30.04R VSB 3/4
AIKEN          CLOUDY    68  68 100 N5        30.09S
MANNING        PTSUNNY   73 N/A N/A CALM      30.02S
KINGSTREE      NOT AVBL
COLUMBIA       LGT RAIN  73  69  87 NW6       30.04R FOG
6HR MIN TEMP:  73; 6HR MAX TEMP:  74; 6HR PCP: TRACE;

SUMTER         CLOUDY    73  73 100 NE3       30.03R FOG
6HR MIN TEMP:  71; 6HR MAX TEMP:  73;

FLORENCE       MOSUNNY   74  71  91 E8        30.04R
6HR MIN TEMP:  73; 6HR MAX TEMP:  74;

MYRTLE BEACH   LGT RAIN  79  72  78 E9        30.03R
N MYRTLE BEACH LGT RAIN  78  72  81 SE3       30.02F
6HR MIN TEMP:  77; 6HR MAX TEMP:  81; 6HR PCP:  0.02;


$$

GAZ063-065-086>088-099>101-113>116-118-119-134-136>141-150-011300-
...GEORGIA...

CITY           SKY/WX    TMP DP  RH WIND       PRES   REMARKS
SAVANNAH ARPT  FOG       75  73  93 N5        30.00R VSB 1/2
6HR MIN TEMP:  74; 6HR MAX TEMP:  76;

HUNTER AAF     CLOUDY    75  75 100 N2        29.98R FOG
FORT STEWART   CLOUDY    75  73  94 N6        29.98S FOG
6HR MIN TEMP:  73; 6HR MAX TEMP:  74;

STATESBORO     NOT AVBL
SYLVANIA       CLOUDY    74  74 100 NE5       30.04R FOG
CLAXTON        CLOUDY   N/A N/A N/A NE5       30.01R FOG
THOMSON        CLOUDY    70  70 100 N5        30.11R
AUGUSTA-BUSH   CLOUDY    70  68  93 N10       30.03S
6HR MIN TEMP:  70; 6HR MAX TEMP:  72;

AUGUSTA-DANIEL CLOUDY    69  66  90 N12       30.05S
SWAINSBORO     CLOUDY    75  75 100 N3        30.04R FOG
VIDALIA        FOG       73  73 100 NE3       30.01S VSB 1/4
ALMA           MOSUNNY   75  72  90 CALM      29.98S FOG
6HR MIN TEMP:  71; 6HR MAX TEMP:  75;

WAYCROSS       PTSUNNY   78  75  91 E3        29.99R
JESUP          FAIR      79  75  89 NE3       29.99R FOG
BRUNSWICK      PTSUNNY   79  73  83 CALM      29.98S
SAINT SIMONS   PTSUNNY   81  76  84 NW3       29.97R
6HR MIN TEMP:  81; 6HR MAX TEMP:  83; 6HR PCP: TRACE;


$$

SCZ027-028-034-036>038-045-046-048>050-GAZ119-141-011300-
...LAKE AND SUPPLEMENTAL COASTAL OBSERVATIONS...

STATION/POSITION TIME  TEMP    WIND        PRES    WAVE   SWELL
                       AIR SEA DIR/SP/G            HT/PER HT/PER/DIR
                 (UTC) (F)     (DEG/KT/KT) (MB)    (FT/S) (FT/S/D)
UPR LAKE MARION  NOT AVBL
WINYAH BAY       1200   77     130/  6     1016.0S
LAKE MURRAY      1200   67     350/  2/ 10 1017.3S
ACE BASIN NERRS  1200   72      20/  2     1016.0S
FORT PULASKI     1200   76     360/  6/  8 1015.7S
SAPELO ISLAND    1200   81     360/  2     1015.0S

$$

ANZ835-935-AMZ111-154-330-350-352-354-374-450-454-472-011300-
...C-MAN AND BUOY OBSERVATIONS...

STATION/POSITION TIME  TEMP    WIND        PRES    WAVE   SWELL
                       AIR SEA DIR/SP/G            HT/PER HT/PER/DIR
                 (UTC) (F)     (DEG/KT/KT) (MB)    (FT/S) (FT/S/D)
FOLLY BEACH CMAN 1200   78     330/  3/  5 1016.0S
BUOY 41004       1200   80 83  300/  2/  4 1015.3R   4/ 6   3/ 6
BUOY 41008       1200   83 85  160/  6/  8 1014.9R   3/ 4   2/140/ 4
5E ST. MARYS GA  1200      85                N/A     3/ 4
FRYING PAN BUOY  NOT AVBL
BUOY 41025       1200          VRB 16/ 19  1018.5R   4/ 7   2/100/ 8
CAPE LOOKOUT NC  1200   79     100/ 14/ 16 1018.2R
BUOY 41002       1115   81 81  150/ 12/ 14 1019.0R   4/ 7   3/100/ 7
BUOY 41010       1200   83 84  150/ 12/ 14 1015.9R   3/ 5   2/ 60/ 8
BUOY 41012       NOT AVBL
ST AUGUSTINE FL  1200   78     220/  7/  7 1015.7R
CAPERS NEARSHORE 1100   79     140/ 12/ 14   N/A
FRIPP NEARSHORE  NOT AVBL


$$


USA.gov is the U.S. government's official web portal to all federal, state and local government web resources and services.